Home > Weather > Antofagasta > Past weeks

Flag for Chile Weather for the Past 2 Weeks in Antofagasta, Chile

Now
70 °F

Passing clouds.


Feels Like: 70 °F
Forecast: 70 / 80 °F
Wind: 8 mph from South

Location: Antofagasta Airport

Current Time: Feb 6, 2016 at 1:17:45 AM

Latest Report: Feb 6, 2016 at 1:00 AM


Visibility: N/A

Pressure: 29.92 "Hg

Humidity: 73%

Dew point: 61 °F

Location of AntofagastaLocation

Historic Weather in Antofagasta — Graph

°F

Antofagasta Temperature Yesterday

Maximum temperature yesterday: 75 °F (at 12:00 PM)
Minimum temperature yesterday: 66 °F (at 5:00 AM)
Average temperature yesterday: 71 °F

High & Low Weather Summary for the Past Weeks

 TemperatureHumidityPressure
High79 °F (Jan 29, 12:00 PM)88% (Jan 28, 3:00 AM)30.01 "Hg (Jan 28, 3:00 AM)
Low64 °F (Jan 22, 4:00 AM)42% (Jan 25, 11:00 AM)29.80 "Hg (Jan 24, 6:00 PM)
Average71 °F67%29.92 "Hg
* Reported Midnight between Jan 21 and Jan 22 — Midnight between Feb 5 and Feb 6, Antofagasta, Weather by CustomWeather, © 2016

Note: Actual official high and low records may vary slightly from our data, if they occured in-between our weather recording intervals... More about our weather records

Advertising

Antofagasta Weather History for the Previous 24 Hours

 ConditionsComfort  
Time TempWeatherWind HumidityBarometerVisibility
12:00 AM
Sat, Feb 6
70 °FPassing clouds.10 mph78%29.92 "HgN/A
11:00 PM
Fri, Feb 5
70 °FPassing clouds.6 mph78%29.92 "HgN/A
10:00 PM70 °FPassing clouds.7 mph78%29.92 "HgN/A
9:00 PM70 °FPassing clouds.13 mph78%29.89 "HgN/A
8:00 PM72 °FPartly sunny.15 mph73%29.89 "HgN/A
7:00 PM73 °FScattered clouds.15 mph69%29.86 "HgN/A
6:00 PM73 °FPartly sunny.15 mph69%29.89 "HgN/A
5:00 PM75 °FScattered clouds.16 mph65%29.89 "HgN/A
4:00 PM75 °FPassing clouds.17 mph61%29.89 "HgN/A
3:00 PM75 °FPassing clouds.16 mph61%29.89 "HgN/A
2:00 PM75 °FPassing clouds.15 mph61%29.92 "HgN/A
1:00 PM75 °FPassing clouds.15 mph61%29.92 "HgN/A
12:00 PM75 °FPassing clouds.10 mph54%29.95 "HgN/A
11:00 AM73 °FPassing clouds.8 mph57%29.95 "HgN/A
10:00 AM72 °FSunny.3 mph69%29.95 "Hg10 mi
9:00 AM72 °FPassing clouds.No wind73%29.92 "HgN/A
8:00 AM66 °FPassing clouds.No wind78%29.89 "HgN/A
7:00 AM66 °FPassing clouds.3 mph78%29.89 "HgN/A
6:00 AM66 °FClear.3 mph78%29.89 "Hg10 mi
5:00 AM66 °FClear.3 mph78%29.86 "Hg10 mi
4:00 AM68 °FClear.3 mph78%29.89 "Hg10 mi
3:00 AM68 °FClear.7 mph78%29.89 "Hg10 mi
1:00 AM70 °FClear.8 mph73%29.92 "Hg10 mi
Weather by CustomWeather, © 2016

See weather overviewHow to use our weather pages